Terug naar catalogus

STARLINK-34795

ActiefCommunicatieVLEO
NORAD 65684·PAYLOAD·🇺🇸 United States

Gelanceerd Sep 21, 2025 vanaf Cape Canaveral Space Force Station

Loading…

Volgende Passages (komende 24 uur)

TLE

VersSource: CelesTrak SupGP

Epoch: Sep 15, 2026, 02:30 UTC

1 65684C 25212J   26258.10465278 -.00066978  00000+0 -19788-2 0  2587
2 65684  53.1582 183.1582 0001323  86.9891 214.6418 15.34425737    11

Volg STARLINK-34795 in realtime met AllMySat

Download on the App Store